Flag for Germany Weather past 2 weeks in Kaufbeuren, Bavaria, Germany

Now
66 °F

Passing clouds.


Feels Like: 66 °F
Forecast: 52 / 76 °F
Wind: 6 mph from East

Location: Altenstadt Airport

Current Time: Jul 31, 2014 at 8:46:12 PM

Latest Report: Jul 31, 2014 at 7:20 PM


Visibility: N/A

Pressure: 30.01 "Hg

Humidity: 73%

Dew point: 57 °F

Location of KaufbeurenLocation

Historic Weather in Kaufbeuren — Graph

°F

Kaufbeuren temperature yesterday

Maximum temperature yesterday: 63 °F (at 1:20 PM)
Minimum temperature yesterday: 57 °F (at 7:20 AM)
Average temperature yesterday: 60 °F

Past Weeks' High & Low Weather Summary

 TemperatureHumidityPressure
High86 °F (Jul 19, 3:20 PM)100% (Jul 21, 2:20 PM)30.24 "Hg (Jul 21, 2:20 PM)
Low50 °F (Jul 25, 6:20 AM)29% (Jul 19, 5:20 PM)29.80 "Hg (Jul 29, 3:20 PM)
Average64 °F80%29.99 "Hg
* Reported Jul 16 7:20 PM — Jul 31 7:20 PM, Kaufbeuren, Weather by CustomWeather, © 2014

Note: Actual official high and low records may vary slightly from our data, if they occured in-between our weather recording intervals... More about our weather records

Advertising

Kaufbeuren weather history for previous 24 hours

 ConditionsComfort  
Time TempWeatherWind HumidityBarometerVisibility
7:20 PM
Jul 31
66 °FPassing clouds.6 mph73%30.01 "HgN/A
6:20 PM66 °FPartly sunny.7 mph73%30.01 "HgN/A
5:20 PM66 °FPartly sunny.5 mph73%30.04 "HgN/A
4:20 PM66 °FPartly sunny.6 mph73%30.04 "HgN/A
3:20 PM64 °FPartly sunny.5 mph78%30.04 "HgN/A
2:20 PM64 °FBroken clouds.6 mph78%30.04 "HgN/A
1:20 PM66 °FBroken clouds.2 mph73%30.04 "HgN/A
12:20 PM64 °FBroken clouds.5 mph78%30.07 "HgN/A
11:20 AM63 °FPartly sunny.5 mph88%30.07 "Hg6 mi
10:20 AM61 °FBroken clouds.5 mph94%30.04 "Hg4 mi
9:20 AM59 °FFog.6 mph94%30.04 "Hg3 mi
8:20 AM59 °FFog.8 mph94%30.01 "Hg2 mi
7:20 AM59 °FFog.9 mph94%30.01 "Hg2 mi
6:20 AM59 °FFog.10 mph100%30.01 "Hg1 mi
5:20 AM59 °FLight rain. Fog.8 mph100%29.98 "Hg1 mi
4:20 AM59 °FCool.10 mph100%29.98 "HgN/A
3:20 AM59 °FCool.13 mph100%29.95 "HgN/A
2:20 AM59 °FCool.13 mph100%29.95 "HgN/A
1:20 AM61 °FCool.14 mph100%29.95 "HgN/A
12:20 AM59 °FCool.3 mph100%29.95 "HgN/A
11:20 PM
Jul 30
59 °FCool.8 mph100%29.95 "HgN/A
10:20 PM59 °FCool.9 mph100%29.92 "HgN/A
9:20 PM59 °FCool.9 mph100%29.92 "HgN/A
8:20 PM59 °FLight rain. Partly sunny.9 mph100%29.92 "Hg6 mi
Weather by CustomWeather, © 2014

See weather overviewHow to use our weather pages